RH
80 85 89 96 92 94 88 82 86 78 62 57 62 78 81 79 82 89 88 74 82 86 71 91 86 83 85 85 68 55 76 68 44 31 36 45 39 48 47 42 49 48 52 65 97
85 81 94 96 90 93 79 84 86 83 79 59 54 59 67 74 92 83 83 78 76 86 91 90 80 76 88 80 75 66 81 54 46 37 44 47 36 43 41 41 43 42 55 95 96
96 92 83 90 95 88 90 86 83 82 63 57 56 55 58 64 82 64 75 73 78 87 98 97 75 69 63 95 76 63 60 44 44 44 47 51 49 48 38 40 41 44 51 97 100
83 92 94 81 94 94 87 89 78 85 60 51 66 57 59 90 67 86 68 70 81 88 88 95 90 67 61 82 89 68 48 50 48 61 47 43 48 44 40 46 48 49 47 68 98
84 86 89 90 86 94 93 52 81 59 48 40 59 63 84 71 60 86 79 70 69 81 96 98 77 65 50 62 77 91 50 51 73 57 52 58 46 48 47 48 52 48 46 48 75
88 89 86 86 89 86 95 61 64 77 45 42 49 69 91 59 73 75 87 85 81 75 100 99 76 55 43 47 78 72 62 53 52 55 58 56 53 61 42 45 48 50 44 46 51
94 85 88 88 96 88 84 86 55 77 43 46 46 82 76 70 71 75 81 84 86 79 98 99 84 61 48 37 52 61 70 60 55 50 47 61 60 53 47 44 42 42 41 44 47
88 84 84 84 93 83 89 87 66 52 43 46 46 80 64 68 73 79 82 82 89 79 82 83 97 70 47 39 48 73 83 87 56 51 46 53 56 40 45 48 42 43 37 40 44
89 87 88 84 94 83 95 79 63 55 44 48 76 72 56 68 84 91 83 87 86 97 96 86 96 70 55 49 56 50 75 71 54 45 48 55 42 36 38 39 41 41 37 36 40
92 87 90 84 94 85 97 72 65 59 62 73 70 70 54 65 91 93 88 82 95 98 97 99 93 60 52 54 63 45 32 40 52 56 54 63 52 40 42 44 40 39 38 35 35
93 90 88 93 98 89 76 94 86 77 68 57 56 54 53 74 90 86 91 96 92 91 96 94 98 71 42 36 27 27 27 38 38 51 63 61 55 46 38 39 39 39 37 34 32
89 92 92 95 98 99 76 80 70 70 50 68 66 64 65 78 80 87 95 94 93 83 80 94 98 44 33 32 34 26 30 43 50 56 64 62 65 46 38 36 37 34 32 32 30
95 96 98 99 95 97 95 76 63 61 62 68 69 69 74 79 67 90 95 99 68 63 82 95 88 66 39 44 42 35 31 33 51 62 58 61 80 58 40 36 34 35 33 31 30
86 98 99 96 94 96 84 66 61 60 88 65 57 72 77 74 73 83 95 94 90 76 70 80 85 82 49 44 38 42 29 34 40 53 56 46 42 37 36 37 34 33 34 34 35
45 91 94 93 98 91 85 67 62 76 94 71 66 62 73 66 68 86 94 88 71 74 68 92 93 78 53 43 33 40 37 38 39 42 30 44 46 26 27 32 30 31 31 32 35
42 64 76 93 99 90 67 64 89 92 91 94 59 56 56 60 66 87 94 94 52 62 87 92 94 72 42 36 37 43 41 40 38 36 56 41 39 28 23 28 24 22 25 29 33
66 75 91 99 96 76 66 90 97 93 94 78 56 53 52 82 83 86 89 94 73 91 100 98 95 78 58 54 47 40 44 65 63 74 58 37 36 29 25 25 24 25 25 26 29
77 78 74 73 80 77 98 71 90 79 89 58 52 55 60 72 90 69 96 94 66 50 93 100 99 78 56 43 48 47 37 48 53 52 43 42 48 29 24 24 25 26 26 26 28
79 90 87 73 79 86 79 98 91 94 59 50 53 57 55 58 63 66 96 86 58 59 85 83 100 80 58 52 42 47 53 38 49 39 44 37 30 25 21 22 21 21 23 24 27
93 99 98 78 89 98 79 88 77 77 68 43 63 47 54 54 53 55 80 66 66 65 66 64 94 79 70 59 48 45 38 50 60 66 41 34 29 23 23 23 21 24 27 28 31
100 88 85 85 98 92 89 80 69 67 63 65 85 61 44 44 44 48 64 62 59 62 54 51 50 87 78 68 56 56 58 50 43 50 52 30 25 20 24 24 27 28 32 33 35
98 78 87 90 95 67 83 66 67 62 70 79 73 62 41 36 42 48 59 58 54 52 60 48 57 75 70 66 53 48 43 42 52 62 43 45 35 20 22 24 28 29 31 32 39
85 86 87 96 88 64 60 59 58 56 56 56 71 67 59 49 54 55 58 57 60 51 59 48 66 97 92 62 53 58 48 44 39 55 60 53 33 25 24 26 27 29 31 30 34
83 86 98 97 94 63 58 57 60 61 53 50 46 55 55 54 53 62 64 61 60 55 57 51 50 60 62 60 45 60 50 49 50 69 50 45 36 28 27 26 24 25 30 34 36
77 59 68 88 72 61 63 57 53 57 53 50 49 49 48 56 57 63 63 65 61 65 53 49 80 74 50 56 60 59 49 48 67 57 58 40 38 31 28 31 34 36 36 37 37
60 60 75 60 62 60 69 61 54 63 58 53 52 50 44 49 56 59 62 64 65 58 56 52 84 67 82 53 57 64 52 50 51 52 52 47 47 34 35 36 36 37 37 38 38
53 60 60 62 57 53 54 57 61 60 65 62 52 50 61 71 65 58 53 52 50 58 62 62 69 82 74 54 52 58 44 45 49 46 48 52 38 38 42 45 48 48 48 46 44
Wind_Speed
12 16 19 20 18 16 12 12 16 13 12 11 9 7 5 7 9 8 13 14 20 12 16 16 16 15 12 13 19 15 7 13 13 16 12 9 7 4 2 4 4 4 3 1 6
19 13 16 16 19 16 11 12 12 10 12 10 9 7 6 6 8 11 13 16 16 13 10 19 22 19 10 11 12 12 4 20 17 1 12 11 8 7 4 8 8 7 6 3 13
18 19 17 15 17 17 13 8 9 10 11 9 8 6 5 3 7 8 13 17 17 14 10 14 20 21 16 6 12 11 19 5 10 10 11 7 8 4 9 5 7 7 9 4 16
16 18 18 17 13 16 13 11 8 10 9 7 7 6 3 3 4 2 5 11 17 15 12 11 19 23 18 11 13 14 21 9 11 9 9 7 8 6 2 11 6 7 9 3 10
20 19 20 23 16 11 15 12 9 10 9 8 6 7 1 7 6 1 5 5 16 23 12 13 17 25 21 16 15 7 21 23 21 4 9 6 2 2 5 5 1 3 5 8 5
19 20 20 21 21 13 12 13 8 11 8 8 6 4 4 9 1 2 4 4 11 22 10 15 13 22 16 19 23 12 10 18 13 14 3 1 5 8 10 8 4 2 1 5 6
18 21 21 20 22 10 11 11 10 10 7 7 4 4 5 4 2 5 4 6 10 25 19 14 11 15 9 13 25 32 7 13 13 12 6 4 9 16 21 12 8 8 7 4 3
19 21 20 19 21 10 11 11 9 7 5 4 3 4 5 3 5 5 5 10 7 14 23 16 10 11 11 11 22 15 9 10 14 17 16 13 16 18 24 23 26 16 13 8 6
16 18 17 18 18 13 10 10 7 5 5 4 4 4 2 4 9 6 6 9 13 14 18 11 16 15 10 15 14 15 13 19 15 20 12 16 10 10 20 28 33 26 20 15 10
15 18 18 18 18 14 9 6 6 5 4 3 5 5 1 6 10 1 5 11 13 21 18 9 6 8 13 15 16 19 18 15 12 15 15 16 14 5 10 18 31 34 27 22 19
16 17 17 15 15 10 3 3 1 2 2 3 3 4 4 7 4 6 7 5 16 20 10 5 3 17 24 22 15 18 18 15 11 10 16 13 13 15 12 13 16 36 36 30 28
18 16 15 14 17 5 4 3 1 1 2 1 2 4 4 4 1 5 3 4 10 13 13 5 1 15 16 13 5 15 18 11 9 9 13 11 15 19 19 20 18 16 30 32 28
14 15 15 13 10 3 6 4 4 2 3 3 1 2 2 4 4 4 4 4 11 13 7 6 3 11 15 11 11 10 17 16 13 11 10 6 10 20 21 22 19 21 16 21 25
14 14 11 8 2 4 3 6 4 0 2 2 3 1 2 3 3 4 5 4 1 11 7 3 0 11 17 14 13 14 11 9 10 13 7 14 5 19 18 19 19 21 19 18 16
13 11 7 6 0 2 6 6 1 0 2 2 3 2 3 3 2 3 3 2 7 12 5 3 8 12 18 16 8 6 6 7 9 12 7 12 6 11 10 11 16 18 21 21 18
8 2 2 7 5 5 6 4 1 2 2 2 1 1 3 2 4 4 1 3 13 9 9 3 1 8 8 13 2 10 11 8 7 9 8 13 10 8 6 3 5 11 17 20 21
4 9 9 7 2 7 6 1 3 2 1 1 4 2 3 5 4 2 3 3 4 6 0 5 2 2 7 12 5 13 16 5 4 3 4 4 9 10 1 5 5 3 2 7 13
10 12 10 7 8 8 1 3 1 4 1 2 3 3 2 3 3 1 3 2 0 4 3 1 3 5 4 11 7 12 14 4 5 6 10 6 6 4 3 4 2 3 6 7 9
11 8 5 7 6 5 3 2 3 2 2 6 3 2 4 5 3 2 1 2 4 2 2 3 4 0 8 1 5 13 11 4 3 3 1 6 6 7 3 2 3 4 4 3 5
7 5 3 5 3 0 4 2 2 2 3 7 1 3 5 8 6 6 3 3 4 1 1 3 4 5 6 5 1 6 9 3 1 4 4 4 3 1 8 8 9 12 13 12 5
8 4 3 4 3 4 0 3 2 3 2 2 1 2 1 7 3 2 3 6 3 3 2 6 4 5 8 7 11 5 4 3 1 3 3 1 5 9 9 7 7 8 10 13 11
4 2 4 5 3 1 1 3 0 5 7 3 3 4 1 3 4 1 5 3 7 10 5 1 4 5 6 3 3 8 9 11 5 4 3 4 1 2 8 2 1 1 7 14 10
6 4 5 4 2 4 4 3 0 3 4 4 3 4 3 2 3 3 3 3 4 4 2 3 4 5 2 4 4 6 10 7 9 3 5 4 2 2 1 3 5 8 12 16 11
6 3 3 5 4 2 5 5 6 2 2 1 2 5 3 2 2 5 5 2 4 1 3 3 6 2 3 3 7 8 14 12 11 5 9 12 13 10 6 10 14 19 21 18 18
6 4 6 4 6 7 2 3 7 5 2 1 2 4 1 2 4 4 4 6 3 2 1 2 2 3 4 5 3 3 11 15 14 16 12 12 14 13 13 16 23 26 23 22 19
6 5 5 7 8 8 4 3 5 5 2 3 1 0 2 3 4 4 5 2 2 3 2 1 2 2 1 2 2 4 6 7 12 15 15 15 16 14 19 12 20 21 21 21 21
13 11 6 7 9 9 4 5 5 3 6 7 3 5 7 6 4 4 4 4 1 3 6 2 4 2 1 1 3 6 6 9 7 7 8 11 8 12 10 12 16 19 20 20 21
Wind_Direction
315 327 329 338 340 337 346 345 342 340 336 336 322 321 293 268 271 243 233 235 224 242 208 209 205 209 191 210 200 193 207 229 233 213 179 164 184 106 302 127 93 87 60 123 164
340 309 327 328 334 332 339 338 339 342 337 333 328 303 281 265 251 245 236 239 217 210 196 199 196 187 186 205 193 206 241 193 220 194 139 159 174 126 143 144 130 81 49 130 157
330 331 308 329 324 332 330 332 331 340 338 342 332 318 293 262 273 222 227 241 210 216 207 209 202 192 185 184 195 205 212 196 165 171 124 138 133 127 158 127 69 64 42 118 160
333 328 322 307 321 329 321 325 327 328 335 342 349 330 278 246 264 269 252 221 219 213 210 203 209 195 193 199 201 205 208 169 138 132 161 153 147 100 170 100 105 59 37 90 178
332 323 323 318 291 307 318 312 327 322 326 326 333 330 304 239 264 245 332 260 222 210 212 206 200 200 209 192 201 305 198 192 149 161 133 138 139 216 235 168 272 347 28 44 165
325 322 320 316 322 281 309 306 303 311 320 322 337 3 277 248 328 281 272 296 217 214 228 201 208 198 224 188 179 229 231 198 181 189 136 70 251 359 229 229 218 280 322 38 60
318 318 318 315 318 289 284 303 294 299 303 314 328 351 294 293 292 283 273 244 222 204 228 219 227 208 221 191 190 208 232 210 213 197 220 73 288 244 246 252 234 248 258 273 12
311 313 315 313 313 284 279 282 291 303 291 302 333 315 272 284 300 263 239 237 234 217 220 213 219 219 214 180 182 167 200 184 200 200 224 157 251 244 247 254 250 248 254 254 257
318 312 313 314 312 299 288 276 281 304 290 287 330 296 289 314 333 247 233 245 230 213 206 209 219 200 179 186 184 173 197 214 162 192 181 194 242 242 234 227 237 237 244 242 236
317 310 310 310 309 306 293 275 281 280 308 287 267 252 328 328 321 73 317 255 197 178 187 218 233 186 189 181 188 190 218 191 169 186 195 199 233 225 225 236 226 232 239 241 235
316 314 309 312 306 299 274 320 241 211 223 333 349 310 340 340 27 340 350 209 191 165 189 105 221 185 182 188 196 195 209 183 181 178 195 210 225 238 238 222 233 227 234 240 236
307 307 308 307 301 284 218 238 294 204 173 239 297 309 300 319 262 351 355 354 201 180 115 109 195 191 178 197 220 197 193 164 148 163 197 211 225 239 240 242 234 239 226 233 238
313 304 304 298 299 259 208 225 180 129 270 115 20 333 325 338 33 37 75 231 169 175 140 111 237 258 174 170 182 175 192 178 170 160 197 179 244 250 238 245 237 235 243 235 237
306 304 307 305 11 203 208 206 186 81 258 114 131 297 319 287 83 352 62 94 188 134 107 55 12 226 164 159 182 175 210 164 150 173 208 202 270 198 218 223 228 235 238 240 245
317 312 297 191 233 182 217 184 216 131 252 53 67 251 301 326 109 20 87 61 133 125 158 128 213 209 175 164 169 133 185 178 181 212 236 183 248 262 164 227 233 226 236 237 235
329 330 146 148 168 218 162 155 122 241 70 34 88 179 192 78 77 355 65 144 133 109 42 134 342 218 189 153 137 141 155 165 199 221 230 245 215 262 203 182 236 260 234 233 234
88 99 98 124 164 160 145 159 245 331 315 18 114 150 57 37 44 354 134 106 167 149 256 65 60 164 225 136 154 167 154 144 174 204 242 17 226 255 169 196 208 247 257 261 247
126 105 98 104 139 145 160 239 317 95 201 218 123 141 79 94 5 298 62 116 141 195 135 131 116 135 151 184 180 202 189 171 193 195 197 152 220 224 85 57 299 247 250 260 248
140 115 116 142 141 123 256 253 25 65 129 160 144 147 116 135 145 124 272 89 103 77 152 131 75 231 199 13 214 208 231 20 332 38 346 170 226 287 193 153 75 52 18 353 270
139 135 157 160 141 46 258 73 60 120 230 174 337 265 149 128 167 180 145 157 109 71 138 124 117 172 135 261 68 212 143 163 290 180 212 135 265 134 163 124 94 73 57 38 8
150 174 197 163 88 258 309 68 101 168 182 143 288 119 108 134 133 100 95 136 141 168 268 210 143 119 158 218 178 162 172 226 304 355 311 254 107 36 108 93 83 76 40 14 358
178 181 194 152 242 192 195 148 182 154 202 152 298 293 153 128 130 100 135 69 159 158 174 216 117 150 182 352 322 294 232 215 222 191 257 320 335 110 141 71 116 39 350 348 336
161 126 169 171 213 183 139 141 355 161 182 187 165 214 273 131 133 130 106 109 144 148 174 187 135 123 163 268 218 237 221 246 247 6 214 265 169 112 155 265 236 269 296 335 343
169 144 163 215 270 227 166 136 129 101 105 287 68 154 181 123 66 138 120 112 124 118 20 281 170 264 222 75 152 204 219 208 219 230 231 235 262 261 262 274 278 293 311 313 309
200 157 169 183 214 199 219 152 147 128 108 191 181 289 207 99 113 115 97 133 135 139 216 312 128 81 61 68 78 276 222 221 216 232 242 261 271 286 297 316 311 308 307 298 293
189 171 180 146 148 188 181 127 140 118 335 93 93 305 252 80 16 153 146 152 184 192 199 64 116 102 288 13 301 269 246 246 235 239 248 264 277 290 291 300 310 307 302 300 294
203 176 186 153 176 196 152 131 131 151 70 64 57 101 93 78 63 85 97 134 333 189 197 204 142 173 147 343 310 267 266 245 235 260 274 262 303 343 328 326 312 314 310 305 299